,,Stat6,,Stat2,,Stat8,,Stat9,,Stat10,,Wind1,,Wind1,
time,status,PA1M_AVG,status,PR1M_SUM,status,RH1M_AVG,status,SR1M_AVG,status,TA1M_AVG,status,W1dAve1m,status,W1sAve1m,
2006-05-17, 00:00:00,VALID,918.545,VALID,0,VALID,100,VALID,-0.237732,VALID,21.1291,VALID,35,VALID,0.779861,
2006-05-17, 00:01:00,VALID,918.521,VALID,0,VALID,100,VALID,-0.254712,VALID,20.3579,VALID,40,VALID,0.631541,
2006-05-17, 00:02:00,VALID,918.5,VALID,0,VALID,100,VALID,-0.254712,VALID,20.7754,VALID,34,VALID,0.768466,
2006-05-17, 00:03:00,VALID,918.477,VALID,0,VALID,100,VALID,-0.220751,VALID,20.6265,VALID,31,VALID,1.23281,
2006-05-17, 00:04:00,VALID,918.489,VALID,0,VALID,99.9931,VALID,-0.237732,VALID,20.1058,VALID,27,VALID,1.07866,
2006-05-17, 00:05:00,VALID,918.481,VALID,0,VALID,99.8782,VALID,-0.271693,VALID,21.2543,VALID,23,VALID,1.21493,
2006-05-17, 00:06:00,VALID,918.485,VALID,0,VALID,99.8095,VALID,-0.254712,VALID,20.9656,VALID,18,VALID,1.03611,
2006-05-17, 00:07:00,VALID,918.477,VALID,0,VALID,99.8032,VALID,-0.254712,VALID,21.6839,VALID,17,VALID,0.879001,
2006-05-17, 00:08:00,VALID,918.482,VALID,0,VALID,99.7472,VALID,-0.237732,VALID,20.6222,VALID,19,VALID,0.563953,
2006-05-17, 00:09:00,VALID,918.475,VALID,0,VALID,99.7078,VALID,-0.169808,VALID,21.0368,VALID,19,VALID,0.568638,
2006-05-17, 00:10:00,VALID,918.468,VALID,0,VALID,99.6709,VALID,-0.186789,VALID,20.1726,VALID,19,VALID,0.549368,
2006-05-17, 00:11:00,VALID,918.451,VALID,0,VALID,99.5603,VALID,-0.169808,VALID,20.7091,VALID,42,VALID,0.75343,
2006-05-17, 00:12:00,VALID,918.446,VALID,0,VALID,99.4051,VALID,-0.20377,VALID,21.0966,VALID,48,VALID,0.779344,
2006-05-17, 00:13:00,VALID,918.436,VALID,0,VALID,99.2971,VALID,-0.288674,VALID,20.1529,VALID,41,VALID,0.581745,
2006-05-17, 00:14:00,VALID,918.426,VALID,0,VALID,99.2653,VALID,-0.271693,VALID,20.9501,VALID,41,VALID,0.182292,
2006-05-17, 00:15:00,VALID,918.435,VALID,0,VALID,99.3644,VALID,-0.237732,VALID,19.6501,VALID,41,VALID,0,
2006-05-17, 00:16:00,VALID,918.449,VALID,0,VALID,99.5031,VALID,-0.152827,VALID,20.4829,VALID,41,VALID,0.00111607,
2006-05-17, 00:17:00,VALID,918.471,VALID,0,VALID,99.5056,VALID,-0.186789,VALID,20.6911,VALID,40,VALID,0.0612282,
2006-05-17, 00:18:00,VALID,918.487,VALID,0,VALID,99.4636,VALID,-0.186789,VALID,19.6109,VALID,40,VALID,0.00090843,
2006-05-17, 00:19:00,VALID,918.516,VALID,0,VALID,99.5336,VALID,-0.186789,VALID,20.4003,VALID,40,VALID,0,
2006-05-17, 00:20:00,VALID,918.527,VALID,0,VALID,99.6646,VALID,-0.169808,VALID,20.9611,VALID,13,VALID,0.169643,
2006-05-17, 00:21:00,VALID,918.534,VALID,0,VALID,99.9176,VALID,-0.186789,VALID,20.5666,VALID,354,VALID,0.254542,
2006-05-17, 00:22:00,VALID,918.528,VALID,0,VALID,99.9977,VALID,-0.20377,VALID,20.8028,VALID,354,VALID,0.0227431,
2006-05-17, 00:23:00,VALID,918.528,VALID,0,VALID,100,VALID,-0.237732,VALID,20.6649,VALID,354,VALID,0,
2006-05-17, 00:24:00,VALID,918.511,VALID,0,VALID,99.9296,VALID,-0.237732,VALID,19.6543,VALID,354,VALID,0,
2006-05-17, 00:25:00,VALID,918.499,VALID,0,VALID,99.8502,VALID,-0.220751,VALID,19.2838,VALID,354,VALID,0.00360577,
2006-05-17, 00:26:00,VALID,918.499,VALID,0,VALID,99.9952,VALID,-0.237732,VALID,20.7012,VALID,354,VALID,0.00228659,
2006-05-17, 00:27:00,VALID,918.487,VALID,0,VALID,100,VALID,-0.220751,VALID,20.2045,VALID,354,VALID,0.143102,
2006-05-17, 00:28:00,VALID,918.48,VALID,0,VALID,100,VALID,-0.220751,VALID,20.5023,VALID,354,VALID,0.0992354,
2006-05-17, 00:29:00,VALID,918.469,VALID,0,VALID,100,VALID,-0.254712,VALID,19.3846,VALID,287,VALID,0.374442,
2006-05-17, 00:30:00,VALID,918.456,VALID,0,VALID,100,VALID,-0.237732,VALID,19.7987,VALID,234,VALID,0.283203,
2006-05-17, 00:31:00,VALID,918.445,VALID,0,VALID,100,VALID,-0.220751,VALID,20.0396,VALID,234,VALID,0.106001,
2006-05-17, 00:32:00,VALID,918.421,VALID,0,VALID,100,VALID,-0.254712,VALID,21.3429,VALID,224,VALID,0.308866,
2006-05-17, 00:33:00,VALID,918.384,VALID,0,VALID,100,VALID,-0.271693,VALID,19.4447,VALID,219,VALID,0.260356,
2006-05-17, 00:34:00,VALID,918.367,VALID,0,VALID,100,VALID,-0.271693,VALID,20.0219,VALID,230,VALID,0.630682,
2006-05-17, 00:35:00,VALID,918.35,VALID,0,VALID,100,VALID,-0.288674,VALID,19.459,VALID,232,VALID,0.345749,
2006-05-17, 00:36:00,VALID,918.337,VALID,0,VALID,100,VALID,-0.254712,VALID,21.8669,VALID,232,VALID,0.117188,
2006-05-17, 00:37:00,VALID,918.306,VALID,0,VALID,100,VALID,-0.288674,VALID,20.1166,VALID,232,VALID,0.00363372,
2006-05-17, 00:38:00,VALID,918.306,VALID,0,VALID,100,VALID,-0.220751,VALID,19.3603,VALID,232,VALID,0.0208984,
2006-05-17, 00:39:00,VALID,918.282,VALID,0,VALID,100,VALID,-0.237732,VALID,21.0055,VALID,232,VALID,0,
2006-05-17, 00:40:00,VALID,918.282,VALID,0,VALID,100,VALID,-0.152827,VALID,20.3347,VALID,232,VALID,0.0122514,
2006-05-17, 00:41:00,VALID,918.268,VALID,0,VALID,100,VALID,-0.135847,VALID,20.8186,VALID,243,VALID,0.360795,
2006-05-17, 00:42:00,VALID,918.26,VALID,0,VALID,100,VALID,-0.186789,VALID,20.5165,VALID,334,VALID,0.604353,
2006-05-17, 00:43:00,VALID,918.257,VALID,0,VALID,100,VALID,-0.135847,VALID,19.4392,VALID,3,VALID,0.662997,
2006-05-17, 00:44:00,VALID,918.262,VALID,0,VALID,100,VALID,-0.152827,VALID,20.1789,VALID,5,VALID,0.37609,
2006-05-17, 00:45:00,VALID,918.264,VALID,0,VALID,100,VALID,-0.237732,VALID,19.6321,VALID,5,VALID,0.162348,
2006-05-17, 00:46:00,VALID,918.285,VALID,0,VALID,100,VALID,-0.152827,VALID,19.4074,VALID,5,VALID,0,
2006-05-17, 00:47:00,VALID,918.295,VALID,0,VALID,100,VALID,-0.152827,VALID,20.0203,VALID,5,VALID,0.00133384,
2006-05-17, 00:48:00,VALID,918.288,VALID,0,VALID,100,VALID,-0.152827,VALID,20.0666,VALID,5,VALID,0,
2006-05-17, 00:49:00,VALID,918.283,VALID,0,VALID,100,VALID,-0.186789,VALID,19.5864,VALID,5,VALID,0.114524,
2006-05-17, 00:50:00,VALID,918.265,VALID,0,VALID,100,VALID,-0.186789,VALID,20.5975,VALID,14,VALID,0.473772,
2006-05-17, 00:51:00,VALID,918.268,VALID,0,VALID,100,VALID,-0.271693,VALID,19.5235,VALID,24,VALID,0.303646,
2006-05-17, 00:52:00,VALID,918.261,VALID,0,VALID,100,VALID,-0.169808,VALID,19.5811,VALID,24,VALID,0.401155,
2006-05-17, 00:53:00,VALID,918.264,VALID,0,VALID,100,VALID,-0.152827,VALID,20.6135,VALID,24,VALID,0.332122,
2006-05-17, 00:54:00,VALID,918.274,VALID,0,VALID,100,VALID,-0.305655,VALID,20.6734,VALID,24,VALID,0.138529,
2006-05-17, 00:55:00,VALID,918.279,VALID,0,VALID,100,VALID,-0.271693,VALID,19.6791,VALID,24,VALID,0,
2006-05-17, 00:56:00,VALID,918.292,VALID,0,VALID,100,VALID,-0.271693,VALID,20.3955,VALID,24,VALID,0,
2006-05-17, 00:57:00,VALID,918.276,VALID,0,VALID,100,VALID,-0.237732,VALID,20.0517,VALID,24,VALID,0,
2006-05-17, 00:58:00,VALID,918.27,VALID,0,VALID,100,VALID,-0.254712,VALID,20.2162,VALID,24,VALID,0,
2006-05-17, 00:59:00,VALID,918.265,VALID,0,VALID,100,VALID,-0.271693,VALID,19.5239,VALID,24,VALID,0.0928199,
2006-05-17, 01:00:00,VALID,918.242,VALID,0,VALID,100,VALID,-0.186789,VALID,19.1077,VALID,24,VALID,0.0105378,
2006-05-17, 01:01:00,VALID,918.251,VALID,0,VALID,100,VALID,-0.152827,VALID,19.9665,VALID,24,VALID,0,
2006-05-17, 01:02:00,VALID,918.252,VALID,0,VALID,100,VALID,-0.152827,VALID,20.3035,VALID,24,VALID,0,
2006-05-17, 01:03:00,VALID,918.24,VALID,0,VALID,100,VALID,-0.186789,VALID,20.4231,VALID,24,VALID,0,
2006-05-17, 01:04:00,VALID,918.24,VALID,0,VALID,100,VALID,-0.20377,VALID,20.1513,VALID,24,VALID,0,
2006-05-17, 01:05:00,VALID,918.231,VALID,0,VALID,100,VALID,-0.152827,VALID,20.2615,VALID,24,VALID,0,
2006-05-17, 01:06:00,VALID,918.219,VALID,0,VALID,100,VALID,-0.186789,VALID,20.2637,VALID,24,VALID,0.259448,
2006-05-17, 01:07:00,VALID,918.208,VALID,0,VALID,100,VALID,-0.135847,VALID,20.5588,VALID,35,VALID,0.242374,
2006-05-17, 01:08:00,VALID,918.181,VALID,0,VALID,100,VALID,-0.135847,VALID,19.8251,VALID,85,VALID,0.322027,
2006-05-17, 01:09:00,VALID,918.144,VALID,0,VALID,100,VALID,-0.135847,VALID,20.008,VALID,217,VALID,0.241824,
2006-05-17, 01:10:00,VALID,918.111,VALID,0,VALID,100,VALID,-0.135847,VALID,20.4201,VALID,205,VALID,0.462326,
2006-05-17, 01:11:00,VALID,918.088,VALID,0,VALID,100,VALID,-0.20377,VALID,19.5582,VALID,175,VALID,0.430664,
2006-05-17, 01:12:00,VALID,918.062,VALID,0,VALID,100,VALID,-0.220751,VALID,19.2493,VALID,175,VALID,0.603743,
2006-05-17, 01:13:00,VALID,918.055,VALID,0,VALID,100,VALID,-0.20377,VALID,20.51,VALID,175,VALID,0.440662,
2006-05-17, 01:14:00,VALID,918.037,VALID,0,VALID,100,VALID,-0.20377,VALID,19.1943,VALID,175,VALID,0.231707,
2006-05-17, 01:15:00,VALID,918.019,VALID,0,VALID,100,VALID,-0.220751,VALID,19.3457,VALID,175,VALID,0.0735829,
2006-05-17, 01:16:00,VALID,918.003,VALID,0,VALID,100,VALID,-0.20377,VALID,20.2109,VALID,175,VALID,0.0152616,
2006-05-17, 01:17:00,VALID,918.004,VALID,0,VALID,100,VALID,-0.20377,VALID,20.7005,VALID,175,VALID,0.082919,
2006-05-17, 01:18:00,VALID,918,VALID,0,VALID,100,VALID,-0.20377,VALID,19.3714,VALID,175,VALID,0,
2006-05-17, 01:19:00,VALID,917.984,VALID,0,VALID,100,VALID,-0.20377,VALID,20.6735,VALID,175,VALID,0,
2006-05-17, 01:20:00,VALID,917.975,VALID,0,VALID,100,VALID,-0.237732,VALID,21.5352,VALID,175,VALID,0,
2006-05-17, 01:21:00,VALID,917.966,VALID,0,VALID,100,VALID,-0.220751,VALID,20.115,VALID,175,VALID,0,
2006-05-17, 01:22:00,VALID,917.974,VALID,0,VALID,100,VALID,-0.220751,VALID,19.144,VALID,175,VALID,0,
2006-05-17, 01:23:00,VALID,917.959,VALID,0,VALID,100,VALID,-0.237732,VALID,20.5325,VALID,175,VALID,0,
2006-05-17, 01:24:00,VALID,917.95,VALID,0,VALID,100,VALID,-0.20377,VALID,20.015,VALID,175,VALID,0,
2006-05-17, 01:25:00,VALID,917.914,VALID,0,VALID,100,VALID,-0.169808,VALID,19.1091,VALID,175,VALID,0,
2006-05-17, 01:26:00,VALID,917.876,VALID,0,VALID,100,VALID,-0.118866,VALID,20.0021,VALID,175,VALID,0.197218,
2006-05-17, 01:27:00,VALID,917.827,VALID,0,VALID,100,VALID,-0.135847,VALID,19.9666,VALID,23,VALID,0.770647,
2006-05-17, 01:28:00,VALID,917.779,VALID,0,VALID,100,VALID,-0.169808,VALID,20.2073,VALID,11,VALID,1.01885,
2006-05-17, 01:29:00,VALID,917.737,VALID,0,VALID,100,VALID,-0.220751,VALID,20.7901,VALID,22,VALID,1.13281,
2006-05-17, 01:30:00,VALID,917.709,VALID,0,VALID,100,VALID,-0.20377,VALID,19.9798,VALID,23,VALID,0.961682,
2006-05-17, 01:31:00,VALID,917.679,VALID,0,VALID,100,VALID,-0.220751,VALID,20.9574,VALID,36,VALID,0.781428,
2006-05-17, 01:32:00,VALID,917.664,VALID,0,VALID,100,VALID,-0.220751,VALID,20.3077,VALID,36,VALID,0.593568,
2006-05-17, 01:33:00,VALID,917.656,VALID,0,VALID,100,VALID,-0.220751,VALID,20.9964,VALID,36,VALID,0.250977,
2006-05-17, 01:34:00,VALID,917.638,VALID,0,VALID,100,VALID,-0.220751,VALID,19.5942,VALID,36,VALID,0.32207,
2006-05-17, 01:35:00,VALID,917.632,VALID,0,VALID,100,VALID,-0.20377,VALID,19.4721,VALID,41,VALID,0.0890997,
2006-05-17, 01:36:00,VALID,917.612,VALID,0,VALID,100,VALID,-0.20377,VALID,20.2979,VALID,42,VALID,0.140253,
2006-05-17, 01:37:00,VALID,917.585,VALID,0,VALID,100,VALID,-0.220751,VALID,20.6254,VALID,42,VALID,0.100586,
2006-05-17, 01:38:00,VALID,917.563,VALID,0,VALID,100,VALID,-0.20377,VALID,19.1791,VALID,42,VALID,0.0456731,
2006-05-17, 01:39:00,VALID,917.542,VALID,0,VALID,100,VALID,-0.237732,VALID,20.5283,VALID,42,VALID,0.251402,
2006-05-17, 01:40:01,VALID,917.504,VALID,0,VALID,100,VALID,-0.220751,VALID,19.5687,VALID,42,VALID,0.287695,
2006-05-17, 01:41:00,VALID,917.477,VALID,0,VALID,100,VALID,-0.220751,VALID,19.6094,VALID,42,VALID,0.381359,
2006-05-17, 01:42:00,VALID,917.439,VALID,0,VALID,100,VALID,-0.118866,VALID,20.2031,VALID,42,VALID,0.260156,
2006-05-17, 01:43:01,VALID,917.412,VALID,0,VALID,100,VALID,-0.118866,VALID,19.1922,VALID,42,VALID,0.302507,
2006-05-17, 01:44:00,VALID,917.363,VALID,0,VALID,100,VALID,-0.101885,VALID,19.8169,VALID,42,VALID,0.222747,
2006-05-17, 01:45:00,VALID,917.321,VALID,0,VALID,100,VALID,-0.152827,VALID,19.1158,VALID,42,VALID,0.280208,
2006-05-17, 01:46:01,VALID,917.294,VALID,0,VALID,100,VALID,-0.220751,VALID,19.4956,VALID,49,VALID,0.706845,
2006-05-17, 01:47:00,VALID,917.265,VALID,0,VALID,100,VALID,-0.20377,VALID,19.8081,VALID,55,VALID,0.74707,
2006-05-17, 01:48:00,VALID,917.258,VALID,0,VALID,100,VALID,-0.220751,VALID,19.6368,VALID,55,VALID,0.744368,
2006-05-17, 01:49:00,VALID,917.248,VALID,0,VALID,100,VALID,-0.237732,VALID,19.5144,VALID,55,VALID,0.547743,
2006-05-17, 01:50:00,VALID,917.243,VALID,0,VALID,100,VALID,-0.254712,VALID,19.2282,VALID,55,VALID,0.498512,
2006-05-17, 01:51:00,VALID,917.232,VALID,0,VALID,100,VALID,-0.237732,VALID,19.5079,VALID,55,VALID,0.334821,
2006-05-17, 01:52:00,VALID,917.215,VALID,0,VALID,100,VALID,-0.237732,VALID,19.6328,VALID,55,VALID,0.346726,
2006-05-17, 01:53:01,VALID,917.191,VALID,0,VALID,100,VALID,-0.220751,VALID,19.8866,VALID,55,VALID,0.291606,
2006-05-17, 01:54:01,VALID,917.189,VALID,0,VALID,100,VALID,-0.237732,VALID,21.2928,VALID,31,VALID,0.543155,
2006-05-17, 01:55:00,VALID,917.175,VALID,0,VALID,100,VALID,-0.237732,VALID,19.5905,VALID,18,VALID,0.686547,
2006-05-17, 01:56:01,VALID,917.166,VALID,0,VALID,100,VALID,-0.20377,VALID,19.1763,VALID,18,VALID,0.70873,
2006-05-17, 01:57:00,VALID,917.159,VALID,0,VALID,100,VALID,-0.220751,VALID,19.8821,VALID,18,VALID,0.63899,
2006-05-17, 01:58:00,VALID,917.157,VALID,0,VALID,100,VALID,-0.220751,VALID,20.0272,VALID,20,VALID,0.454799,
2006-05-17, 01:59:00,VALID,917.159,VALID,0,VALID,100,VALID,-0.237732,VALID,20.72,VALID,20,VALID,0.140807,
2006-05-17, 02:00:00,VALID,917.158,VALID,0,VALID,100,VALID,-0.237732,VALID,19.6294,VALID,20,VALID,0.428686,
2006-05-17, 02:01:01,VALID,917.139,VALID,0,VALID,100,VALID,-0.254712,VALID,19.5563,VALID,18,VALID,0.653906,
2006-05-17, 02:02:01,VALID,917.136,VALID,0,VALID,100,VALID,-0.254712,VALID,20.5488,VALID,14,VALID,0.630327,
2006-05-17, 02:03:00,VALID,917.14,VALID,0,VALID,100,VALID,-0.254712,VALID,20.2733,VALID,20,VALID,0.722942,
2006-05-17, 02:04:00,VALID,917.139,VALID,0,VALID,100,VALID,-0.237732,VALID,19.7126,VALID,26,VALID,0.830929,
2006-05-17, 02:05:00,VALID,917.148,VALID,0,VALID,100,VALID,-0.288674,VALID,19.5515,VALID,43,VALID,0.856326,
2006-05-17, 02:06:01,VALID,917.172,VALID,0,VALID,100,VALID,-0.20377,VALID,19.5478,VALID,27,VALID,0.783918,
2006-05-17, 02:07:00,VALID,917.189,VALID,0,VALID,100,VALID,-0.152827,VALID,19.8215,VALID,36,VALID,0.639101,
2006-05-17, 02:08:00,VALID,917.21,VALID,0,VALID,100,VALID,-0.152827,VALID,19.774,VALID,39,VALID,0.248512,
2006-05-17, 02:09:00,VALID,917.23,VALID,0,VALID,100,VALID,-0.152827,VALID,19.4035,VALID,39,VALID,0.0359003,
2006-05-17, 02:10:00,VALID,917.273,VALID,0,VALID,100,VALID,-0.135847,VALID,19.3403,VALID,36,VALID,0.162997,
2006-05-17, 02:11:01,VALID,917.303,VALID,0,VALID,100,VALID,-0.135847,VALID,20.5222,VALID,31,VALID,0.299782,
2006-05-17, 02:12:00,VALID,917.352,VALID,0,VALID,100,VALID,-0.135847,VALID,20.1146,VALID,29,VALID,0.314063,
2006-05-17, 02:13:00,VALID,917.398,VALID,0,VALID,100,VALID,-0.20377,VALID,20.1198,VALID,25,VALID,0.383539,
2006-05-17, 02:14:00,VALID,917.427,VALID,0,VALID,100,VALID,-0.288674,VALID,20.9728,VALID,22,VALID,0.41806,
2006-05-17, 02:15:00,VALID,917.441,VALID,0,VALID,100,VALID,-0.220751,VALID,19.6082,VALID,14,VALID,0.616629,
2006-05-17, 02:16:00,VALID,917.44,VALID,0,VALID,100,VALID,-0.237732,VALID,19.0119,VALID,7,VALID,0.69436,
2006-05-17, 02:17:00,VALID,917.439,VALID,0,VALID,100,VALID,-0.271693,VALID,19.5728,VALID,7,VALID,0.686612,
2006-05-17, 02:18:00,VALID,917.432,VALID,0,VALID,100,VALID,-0.254712,VALID,20.4001,VALID,7,VALID,0.521019,
2006-05-17, 02:19:00,VALID,917.427,VALID,0,VALID,100,VALID,-0.288674,VALID,19.5498,VALID,26,VALID,0.681504,
2006-05-17, 02:20:00,VALID,917.438,VALID,0,VALID,100,VALID,-0.271693,VALID,20.2555,VALID,33,VALID,0.739281,
2006-05-17, 02:21:00,VALID,917.456,VALID,0,VALID,100,VALID,-0.254712,VALID,18.9291,VALID,43,VALID,0.500363,
2006-05-17, 02:22:01,VALID,917.475,VALID,0,VALID,100,VALID,-0.220751,VALID,19.3246,VALID,43,VALID,0.300586,
2006-05-17, 02:23:01,VALID,917.49,VALID,0,VALID,100,VALID,-0.169808,VALID,20.2606,VALID,43,VALID,0.116122,
2006-05-17, 02:24:00,VALID,917.503,VALID,0,VALID,100,VALID,-0.169808,VALID,20.0905,VALID,43,VALID,0,
2006-05-17, 02:25:00,VALID,917.521,VALID,0,VALID,100,VALID,-0.152827,VALID,20.143,VALID,43,VALID,0.177871,
2006-05-17, 02:26:00,VALID,917.547,VALID,0,VALID,100,VALID,-0.20377,VALID,20.1177,VALID,10,VALID,0.416853,
2006-05-17, 02:27:01,VALID,917.575,VALID,0,VALID,100,VALID,-0.169808,VALID,19.9553,VALID,2,VALID,0.546512,
2006-05-17, 02:28:00,VALID,917.61,VALID,0,VALID,100,VALID,-0.101885,VALID,20.3861,VALID,2,VALID,0.602493,
2006-05-17, 02:29:00,VALID,917.622,VALID,0,VALID,100,VALID,-0.169808,VALID,19.6017,VALID,2,VALID,0.327934,
2006-05-17, 02:30:00,VALID,917.621,VALID,0,VALID,100,VALID,-0.169808,VALID,19.4233,VALID,2,VALID,0.434482,
2006-05-17, 02:31:00,VALID,917.602,VALID,0,VALID,100,VALID,-0.237732,VALID,19.6116,VALID,9,VALID,0.739769,
2006-05-17, 02:32:00,VALID,917.58,VALID,0,VALID,100,VALID,-0.152827,VALID,18.7721,VALID,11,VALID,0.625601,
2006-05-17, 02:33:00,VALID,917.545,VALID,0,VALID,100,VALID,-0.169808,VALID,19.7617,VALID,11,VALID,0.569097,
2006-05-17, 02:34:00,VALID,917.518,VALID,0,VALID,100,VALID,-0.186789,VALID,20.1089,VALID,11,VALID,0.557292,
2006-05-17, 02:35:00,VALID,917.492,VALID,0,VALID,100,VALID,-0.237732,VALID,20.7895,VALID,347,VALID,0.4109,
2006-05-17, 02:36:01,VALID,917.501,VALID,0,VALID,100,VALID,-0.20377,VALID,19.8828,VALID,312,VALID,0.416406,
2006-05-17, 02:37:00,VALID,917.521,VALID,0,VALID,100,VALID,-0.186789,VALID,19.3379,VALID,312,VALID,0.325838,
2006-05-17, 02:38:00,VALID,917.553,VALID,0,VALID,100,VALID,-0.186789,VALID,20.3288,VALID,312,VALID,0.069803,
2006-05-17, 02:39:00,VALID,917.599,VALID,0,VALID,100,VALID,-0.20377,VALID,19.4656,VALID,312,VALID,0.0415396,
2006-05-17, 02:40:00,VALID,917.619,VALID,0,VALID,100,VALID,-0.186789,VALID,20.6359,VALID,312,VALID,0,
2006-05-17, 02:41:01,VALID,917.627,VALID,0,VALID,100,VALID,-0.20377,VALID,18.7983,VALID,312,VALID,0.00093006,
2006-05-17, 02:42:00,VALID,917.63,VALID,0,VALID,100,VALID,-0.186789,VALID,19.9922,VALID,312,VALID,0.201982,
2006-05-17, 02:43:00,VALID,917.629,VALID,0,VALID,100,VALID,-0.20377,VALID,20.5486,VALID,312,VALID,0.192522,
2006-05-17, 02:44:00,VALID,917.621,VALID,0,VALID,100,VALID,-0.169808,VALID,20.212,VALID,313,VALID,0.235491,
2006-05-17, 02:45:00,VALID,917.623,VALID,0,VALID,100,VALID,-0.271693,VALID,20.833,VALID,317,VALID,0.304129,
2006-05-17, 02:46:00,VALID,917.627,VALID,0,VALID,100,VALID,-0.20377,VALID,20.4352,VALID,317,VALID,0.155678,
2006-05-17, 02:47:01,VALID,917.62,VALID,0,VALID,100,VALID,-0.20377,VALID,19.3522,VALID,317,VALID,0.0852273,
2006-05-17, 02:48:00,VALID,917.623,VALID,0,VALID,100,VALID,-0.186789,VALID,19.5697,VALID,317,VALID,0.24295,
2006-05-17, 02:49:00,VALID,917.621,VALID,0,VALID,100,VALID,-0.20377,VALID,20.7932,VALID,317,VALID,0.0647321,
2006-05-17, 02:50:00,VALID,917.614,VALID,0,VALID,100,VALID,-0.20377,VALID,20.1098,VALID,317,VALID,0.00985863,
2006-05-17, 02:51:01,VALID,917.6,VALID,0,VALID,100,VALID,-0.305655,VALID,20.0118,VALID,317,VALID,0.0594952,
2006-05-17, 02:52:01,VALID,917.594,VALID,0,VALID,100,VALID,-0.305655,VALID,19.9983,VALID,317,VALID,0.090298,
2006-05-17, 02:53:01,VALID,917.591,VALID,0,VALID,100,VALID,-0.288674,VALID,19.603,VALID,317,VALID,0.0499238,
2006-05-17, 02:54:00,VALID,917.582,VALID,0,VALID,100,VALID,-0.20377,VALID,20.3009,VALID,317,VALID,0.127257,
2006-05-17, 02:55:01,VALID,917.578,VALID,0,VALID,100,VALID,-0.186789,VALID,19.4848,VALID,317,VALID,0.0692224,
2006-05-17, 02:56:00,VALID,917.577,VALID,0,VALID,100,VALID,-0.169808,VALID,20.3852,VALID,317,VALID,0.00279018,
2006-05-17, 02:57:01,VALID,917.575,VALID,0,VALID,100,VALID,-0.169808,VALID,19.8163,VALID,317,VALID,0,
2006-05-17, 02:58:00,VALID,917.557,VALID,0,VALID,100,VALID,-0.867295,VALID,20.3799,VALID,317,VALID,0,
2006-05-17, 02:59:01,VALID,917.528,VALID,0,VALID,100,VALID,-0.20377,VALID,19.3379,VALID,317,VALID,0,
2006-05-17, 03:00:01,VALID,917.503,VALID,0,VALID,100,VALID,-0.271693,VALID,20.1122,VALID,317,VALID,0,
2006-05-17, 03:01:00,VALID,917.471,VALID,0,VALID,100,VALID,-0.271693,VALID,19.8892,VALID,317,VALID,0,
2006-05-17, 03:02:00,VALID,917.444,VALID,0,VALID,100,VALID,-0.271693,VALID,20.4754,VALID,317,VALID,0,
2006-05-17, 03:03:00,VALID,917.415,VALID,0,VALID,100,VALID,-0.305655,VALID,19.887,VALID,317,VALID,0.179865,
2006-05-17, 03:04:00,VALID,917.399,VALID,0,VALID,100,VALID,-0.305655,VALID,18.6873,VALID,317,VALID,0.10119,
2006-05-17, 03:05:01,VALID,917.368,VALID,0,VALID,100,VALID,-0.271693,VALID,21.06,VALID,317,VALID,0.0419695,
2006-05-17, 03:06:00,VALID,917.355,VALID,0,VALID,100,VALID,-0.220751,VALID,20.2072,VALID,317,VALID,0.34809,
2006-05-17, 03:07:00,VALID,917.342,VALID,0,VALID,100,VALID,-0.20377,VALID,20.7366,VALID,317,VALID,0.384851,
2006-05-17, 03:08:00,VALID,917.331,VALID,0,VALID,100,VALID,-0.186789,VALID,20.1234,VALID,317,VALID,0.229353,
2006-05-17, 03:09:01,VALID,917.323,VALID,0,VALID,100,VALID,-0.305655,VALID,19.7262,VALID,317,VALID,0,
2006-05-17, 03:10:00,VALID,917.31,VALID,0,VALID,100,VALID,-0.186789,VALID,20.6727,VALID,317,VALID,0.00114329,
2006-05-17, 03:11:00,VALID,917.29,VALID,0,VALID,100,VALID,-0.220751,VALID,18.7953,VALID,317,VALID,0.0661337,
2006-05-17, 03:12:00,VALID,917.291,VALID,0,VALID,100,VALID,-0.20377,VALID,19.0585,VALID,317,VALID,0.118712,
2006-05-17, 03:13:00,VALID,917.289,VALID,0,VALID,100,VALID,-0.20377,VALID,20.0336,VALID,41,VALID,0.576265,
2006-05-17, 03:14:00,VALID,917.28,VALID,0,VALID,100,VALID,-0.220751,VALID,20.2152,VALID,58,VALID,0.751334,
2006-05-17, 03:15:00,VALID,917.277,VALID,0,VALID,100,VALID,-0.220751,VALID,20.008,VALID,58,VALID,0.487165,
2006-05-17, 03:16:00,VALID,917.271,VALID,0,VALID,100,VALID,-0.20377,VALID,19.5572,VALID,58,VALID,0.246875,
2006-05-17, 03:17:00,VALID,917.259,VALID,0,VALID,100,VALID,-0.237732,VALID,19.7999,VALID,58,VALID,0,
2006-05-17, 03:18:00,VALID,917.241,VALID,0,VALID,100,VALID,-0.237732,VALID,19.8089,VALID,58,VALID,0,
2006-05-17, 03:19:00,VALID,917.239,VALID,0,VALID,100,VALID,-0.20377,VALID,19.6665,VALID,58,VALID,0,
2006-05-17, 03:20:00,VALID,917.215,VALID,0,VALID,100,VALID,-0.220751,VALID,19.885,VALID,58,VALID,0,
2006-05-17, 03:21:01,VALID,917.204,VALID,0,VALID,100,VALID,-0.220751,VALID,19.3947,VALID,58,VALID,0,
2006-05-17, 03:22:00,VALID,917.195,VALID,0,VALID,100,VALID,-0.220751,VALID,19.9654,VALID,58,VALID,0,
2006-05-17, 03:23:01,VALID,917.166,VALID,0,VALID,100,VALID,-0.20377,VALID,19.8487,VALID,58,VALID,0,
2006-05-17, 03:24:00,VALID,917.158,VALID,0,VALID,100,VALID,-0.237732,VALID,19.2343,VALID,58,VALID,0,
2006-05-17, 03:25:00,VALID,917.136,VALID,0,VALID,100,VALID,-0.237732,VALID,19.5176,VALID,58,VALID,0,
2006-05-17, 03:26:01,VALID,917.117,VALID,0,VALID,100,VALID,-0.220751,VALID,18.7397,VALID,58,VALID,0,
2006-05-17, 03:27:01,VALID,917.104,VALID,0,VALID,100,VALID,-0.237732,VALID,19.893,VALID,58,VALID,0,
2006-05-17, 03:28:01,VALID,917.102,VALID,0,VALID,100,VALID,-0.635847,VALID,20.0573,VALID,58,VALID,0.0863009,
2006-05-17, 03:29:00,VALID,917.091,VALID,0,VALID,100,VALID,-0.867295,VALID,19.5035,VALID,58,VALID,0.37168,
2006-05-17, 03:30:00,VALID,917.074,VALID,0,VALID,100,VALID,-0.186789,VALID,19.045,VALID,55,VALID,0.711128,
2006-05-17, 03:31:01,VALID,917.067,VALID,0,VALID,100,VALID,-0.20377,VALID,20.2789,VALID,50,VALID,0.8879,
2006-05-17, 03:32:01,VALID,917.042,VALID,0,VALID,100,VALID,-0.186789,VALID,19.2839,VALID,47,VALID,0.86849,
2006-05-17, 03:33:01,VALID,916.995,VALID,0,VALID,100,VALID,-0.20377,VALID,18.4732,VALID,44,VALID,0.434775,
2006-05-17, 03:34:00,VALID,916.951,VALID,0,VALID,100,VALID,-0.20377,VALID,19.7633,VALID,44,VALID,0.0653258,
2006-05-17, 03:35:01,VALID,916.914,VALID,0,VALID,100,VALID,-0.186789,VALID,19.8312,VALID,44,VALID,0,
2006-05-17, 03:36:00,VALID,916.884,VALID,0,VALID,100,VALID,-0.20377,VALID,19.4483,VALID,44,VALID,0,
2006-05-17, 03:37:01,VALID,916.856,VALID,0,VALID,100,VALID,-0.186789,VALID,19.7685,VALID,44,VALID,0.039253,
2006-05-17, 03:38:01,VALID,916.85,VALID,0,VALID,100,VALID,-0.186789,VALID,19.2938,VALID,46,VALID,0.290305,
2006-05-17, 03:39:00,VALID,916.814,VALID,0,VALID,100,VALID,-0.20377,VALID,19.7877,VALID,123,VALID,0.512153,
2006-05-17, 03:40:01,VALID,916.793,VALID,0,VALID,100,VALID,-0.186789,VALID,18.2537,VALID,145,VALID,0.198828,
2006-05-17, 03:41:00,VALID,916.77,VALID,0,VALID,100,VALID,-0.271693,VALID,18.5538,VALID,143,VALID,0.432165,